[[{"header":{"parameterUnit":"m.s-1","parameterCategory":1,"la1":30.2991,"la2":30.254,"lo1":-89.0895,"lo2":-89.0444,"dy":0.0017,"dx":0.0017,"nx":28,"ny":28,"refTime":"2025-09-15T03:00:00:Z","depth":0,"parameterNumber":2,"parameterNumberName":"U-component_of_WINDS"},"data":[0,0,0,0,0,0,0,0,0,0,0,0,0,0,0,0,0,0,0,0,0,0,0,0,0,0,0,0,0,0,0,0,0,0,0,0,0,0,0,0,0,0,0,0,0,0,0,0,0,0,0,0,0,0,0,0,0,0,-0.2617,-0.2616,0,-0.2531,-0.253,-0.2529,-0.2481,-0.2481,-0.2481,-0.2481,-0.2392,-0.239,-0.2388,0,0,0,0,0,0,0,0,0,0,0,0,0,-0.2741,-0.2739,-0.2617,-0.2616,-0.2614,-0.2531,-0.253,-0.2528,-0.2481,-0.2481,-0.2481,-0.2481,-0.2393,-0.239,-0.2387,0,0,0,0,0,0,0,0,0,0,0,0,0,-0.2674,-0.2738,-0.2617,-0.2581,-0.2577,-0.2531,-0.253,-0.2528,-0.2481,-0.2481,-0.2481,-0.2481,-0.2394,-0.239,-0.2387,-0.237,0,0,-0.2377,-0.2375,0,0,0,0,0,0,0,0,-0.2678,-0.267,-0.2587,-0.2583,-0.2579,-0.2516,-0.2541,-0.2475,-0.2481,-0.2517,-0.2481,-0.2481,-0.2434,-0.2427,-0.2411,-0.2366,-0.2362,-0.2377,-0.2375,-0.2373,-0.2372,0,0,0,0,0,0,0,-0.2683,-0.2673,-0.2583,-0.2586,-0.2581,-0.2569,-0.256,-0.2528,-0.2478,-0.2514,-0.2511,-0.2501,-0.2431,-0.2415,-0.2409,-0.2361,-0.2377,-0.2374,-0.2372,-0.237,-0.2301,-0.2301,0,0,0,0,0,0,-0.2693,-0.2677,-0.2585,-0.258,-0.2629,-0.2567,-0.2556,-0.2537,-0.2478,-0.2469,-0.2501,-0.2499,-0.242,-0.2413,-0.2405,-0.2384,-0.2373,-0.237,-0.2368,-0.2301,-0.2301,-0.2301,0,0,0,0,0,0,-0.2696,-0.2685,-0.2589,-0.2628,-0.2614,-0.2565,-0.2543,-0.2535,-0.2518,-0.2468,-0.2459,-0.2494,-0.242,-0.241,-0.238,-0.238,-0.2368,-0.2365,-0.23,-0.2301,-0.2301,-0.2339,0,0,0,0,0,0,-0.27,-0.2687,-0.2679,-0.2628,-0.2613,-0.2565,-0.2543,-0.2533,-0.2513,-0.2509,-0.2458,-0.245,-0.2419,-0.2385,-0.2377,-0.2375,-0.2363,-0.23,-0.2301,-0.2301,-0.2337,-0.234,-0.2343,0,0,0,0,0,-0.2704,-0.2693,-0.2679,-0.2668,-0.2602,-0.2565,-0.2556,-0.2521,-0.2513,-0.2506,-0.2474,-0.2451,-0.2381,-0.2383,-0.2373,-0.237,-0.23,-0.23,-0.2301,-0.2336,-0.234,-0.2343,0,0,0,0,0,0,-0.2744,-0.2685,-0.2669,-0.2641,-0.2608,-0.2557,-0.2546,-0.2525,-0.2494,-0.2492,-0.245,-0.2439,-0.2413,-0.2388,-0.2391,-0.2352,-0.2338,-0.2337,-0.2369,-0.2372,-0.2375,-0.2381,-0.236,0,0,0,0,0,-0.275,-0.2724,-0.2674,-0.2654,-0.2638,-0.2595,-0.2577,-0.2553,-0.2518,-0.2504,-0.2469,-0.2436,-0.2406,-0.2388,-0.2358,-0.2334,-0.2323,-0.2327,-0.233,-0.2332,-0.2332,-0.2319,-0.2321,-0.2302,-0.2302,-0.2302,0,0,-0.2761,-0.2726,-0.2712,-0.2661,-0.2633,-0.2607,-0.2584,-0.2557,-0.2538,-0.2499,-0.2469,-0.2444,-0.2403,-0.2377,-0.2364,-0.2355,-0.2335,-0.2333,-0.2335,-0.2333,-0.232,-0.2322,-0.2323,-0.2302,-0.2302,-0.2302,0,0,-0.2769,-0.2739,-0.2719,-0.2692,-0.2651,-0.2623,-0.2618,-0.257,-0.2552,-0.2521,-0.2492,-0.2469,-0.2419,-0.2392,-0.2372,-0.2373,-0.2351,-0.2364,-0.2378,-0.2367,-0.2368,-0.2369,-0.2371,-0.2372,-0.2363,-0.2363,-0.2363,0,-0.2788,-0.2748,-0.2712,-0.2688,-0.2667,-0.2632,-0.2613,-0.2588,-0.2539,-0.2526,-0.2517,-0.2455,-0.2425,-0.2393,-0.2394,-0.2378,-0.2373,-0.2369,-0.2371,-0.2372,-0.2372,-0.2373,-0.2374,-0.2365,-0.2365,-0.2365,-0.2365,0,-0.2774,-0.2748,-0.2737,-0.2691,-0.2669,-0.2648,-0.2609,-0.2592,-0.2571,-0.2544,-0.2514,-0.2478,-0.2441,-0.2432,-0.241,-0.2397,-0.2394,-0.2379,-0.2365,-0.2377,-0.2377,-0.2377,-0.2368,-0.2367,-0.2367,-0.2366,0,0,-0.2803,-0.2739,-0.2736,-0.2716,-0.2669,-0.2647,-0.2625,-0.259,-0.2576,-0.2544,-0.2525,-0.2485,-0.2472,-0.2449,-0.2424,-0.2414,-0.242,-0.2401,-0.2399,-0.2407,-0.2405,-0.2417,-0.2418,-0.2406,-0.2405,-0.2405,-0.2409,0,-0.2804,-0.2762,-0.273,-0.2701,-0.2677,-0.2645,-0.2626,-0.2595,-0.257,-0.2547,-0.2519,-0.2492,-0.2476,-0.2462,-0.2451,-0.2421,-0.2419,-0.2421,-0.2388,-0.2388,-0.24,-0.2418,-0.243,-0.2435,-0.2409,-0.2409,-0.2409,0,-0.2799,-0.2769,-0.2738,-0.2696,-0.2684,-0.2668,-0.2634,-0.2612,-0.2577,-0.256,-0.2536,-0.2511,-0.2488,-0.2477,-0.2445,-0.2447,-0.2432,-0.2416,-0.2415,-0.2411,-0.2399,-0.2415,-0.2435,-0.2436,-0.2408,-0.2408,-0.2408,0,-0.2824,-0.2776,-0.2752,-0.2736,-0.2685,-0.2675,-0.2653,-0.2618,-0.26,-0.2571,-0.2559,-0.2527,-0.251,-0.2487,-0.2455,-0.2449,-0.2427,-0.2412,-0.2412,-0.2413,-0.2409,-0.2409,-0.2428,-0.2399,-0.2399,-0.2399,-0.2399,0,-0.2829,-0.2811,-0.2763,-0.2748,-0.2728,-0.2692,-0.2674,-0.265,-0.262,-0.26,-0.257,-0.2553,-0.2512,-0.249,-0.2464,-0.2443,-0.2435,-0.2421,-0.2415,-0.2424,-0.2426,-0.2414,-0.2413,-0.2399,-0.2399,-0.2399,-0.2399,0,-0.2853,-0.282,-0.2791,-0.2747,-0.2735,-0.2723,-0.2685,-0.267,-0.2644,-0.2621,-0.2613,-0.2573,-0.2546,-0.2512,-0.2473,-0.2457,-0.2438,-0.2428,-0.245,-0.2446,-0.2449,-0.245,-0.246,-0.2461,-0.2431,-0.2431,-0.2432,0,-0.2858,-0.2844,-0.2799,-0.2784,-0.2764,-0.274,-0.2721,-0.2687,-0.2669,-0.2631,-0.2621,-0.2591,-0.2566,-0.2525,-0.2492,-0.2464,-0.2453,-0.2459,-0.2448,-0.2459,-0.2454,-0.2456,-0.2455,-0.2461,-0.2462,-0.2462,-0.2463,0,-0.2871,-0.2856,-0.2831,-0.2801,-0.278,-0.2754,-0.2727,-0.2717,-0.2677,-0.2659,-0.2631,-0.2612,-0.2574,-0.2546,-0.2514,-0.2492,-0.2472,-0.2467,-0.2465,-0.2475,-0.2489,-0.2482,-0.2458,-0.2466,-0.2466,-0.2466,-0.2465,-0.2465,-0.2886,-0.2873,-0.284,-0.2813,-0.279,-0.2766,-0.2751,-0.2724,-0.2701,-0.2667,-0.2649,-0.2622,-0.2591,-0.2545,-0.2525,-0.2505,-0.2497,-0.2495,-0.2494,-0.2494,-0.2498,-0.2492,-0.2499,-0.2498,-0.2498,-0.2498,-0.2498,0,-0.2898,-0.2876,-0.2852,-0.2816,-0.2796,-0.2779,-0.2749,-0.2734,-0.2711,-0.2684,-0.266,-0.263,-0.2603,-0.2571,-0.2542,-0.2532,-0.2522,-0.2526,-0.2527,-0.2522,-0.2506,-0.251,-0.2535,-0.2535,-0.2535,-0.2535,-0.2535,-0.2535,-0.2902,-0.288,-0.2861,-0.2828,-0.2806,-0.278,-0.2765,-0.2744,-0.2722,-0.269,-0.2668,-0.2647,-0.2618,-0.2588,-0.2563,-0.2554,-0.2546,-0.2553,-0.2541,-0.2526,-0.2523,-0.252,-0.2524,-0.2551,-0.2551,-0.2559,-0.2559,-0.256]},{"header":{"parameterUnit":"m.s-1","parameterCategory":1,"la1":30.2991,"la2":30.254,"lo1":-89.0895,"lo2":-89.0444,"dy":0.0017,"dx":0.0017,"nx":28,"ny":28,"refTime":"2025-09-15T03:00:00:Z","depth":0,"parameterNumber":3,"parameterNumberName":"V-component_of_WINDS"},"data":[0,0,0,0,0,0,0,0,0,0,0,0,0,0,0,0,0,0,0,0,0,0,0,0,0,0,0,0,0,0,0,0,0,0,0,0,0,0,0,0,0,0,0,0,0,0,0,0,0,0,0,0,0,0,0,0,0,0,3.0808,3.0807,0,3.075,3.0749,3.0749,3.0759,3.076,3.0761,3.0762,3.0697,3.0694,3.0691,0,0,0,0,0,0,0,0,0,0,0,0,0,3.0921,3.0919,3.0808,3.0807,3.0806,3.075,3.0749,3.0749,3.0759,3.076,3.0761,3.0762,3.0698,3.0694,3.0691,0,0,0,0,0,0,0,0,0,0,0,0,0,3.0868,3.0918,3.0808,3.0805,3.0804,3.075,3.0749,3.0748,3.0759,3.076,3.0762,3.0763,3.0699,3.0695,3.0691,3.0635,0,0,3.0678,3.0677,0,0,0,0,0,0,0,0,3.0871,3.0864,3.0806,3.0805,3.0804,3.0763,3.0765,3.071,3.0758,3.0776,3.0762,3.0764,3.0717,3.0712,3.0697,3.0632,3.0629,3.0678,3.0676,3.0674,3.0673,0,0,0,0,0,0,0,3.0875,3.0866,3.0785,3.0805,3.0804,3.0804,3.0799,3.0755,3.0738,3.0774,3.0775,3.0768,3.0717,3.0701,3.0696,3.0628,3.0678,3.0675,3.0672,3.067,3.0511,3.0509,0,0,0,0,0,0,3.088,3.0869,3.0787,3.0783,3.0842,3.0801,3.0795,3.0775,3.0739,3.0735,3.0767,3.0769,3.0707,3.0701,3.0694,3.0624,3.0674,3.067,3.0668,3.0512,3.051,3.0508,0,0,0,0,0,0,3.0883,3.0873,3.0789,3.0826,3.0816,3.0798,3.0775,3.0773,3.0757,3.0733,3.073,3.0754,3.0708,3.0699,3.0649,3.0621,3.0668,3.0665,3.0515,3.0512,3.0509,3.0484,0,0,0,0,0,0,3.0886,3.0874,3.0853,3.0826,3.0814,3.0747,3.0773,3.0771,3.0751,3.0753,3.0721,3.0717,3.0709,3.0655,3.0645,3.0617,3.0661,3.0517,3.0513,3.051,3.0487,3.0481,3.0476,0,0,0,0,0,3.089,3.0848,3.0852,3.0842,3.0789,3.0746,3.0738,3.0732,3.0749,3.0727,3.0712,3.0718,3.0627,3.065,3.0639,3.0609,3.0519,3.0514,3.051,3.049,3.0482,3.0476,0,0,0,0,0,0,3.087,3.0844,3.0849,3.0797,3.0774,3.0747,3.072,3.0724,3.0694,3.0697,3.0689,3.0681,3.063,3.0615,3.0641,3.0551,3.0575,3.0568,3.0563,3.0555,3.055,3.0553,3.0658,0,0,0,0,0,3.0861,3.083,3.0808,3.0764,3.0752,3.0738,3.0719,3.0717,3.0691,3.0681,3.0662,3.0635,3.06,3.0577,3.0544,3.0486,3.0478,3.046,3.0454,3.0449,3.0443,3.0408,3.0399,3.0495,3.0495,3.0495,0,0,3.0839,3.0821,3.0802,3.076,3.0741,3.0707,3.073,3.0693,3.0667,3.0675,3.0626,3.0611,3.0581,3.0526,3.05,3.0511,3.0415,3.0444,3.044,3.0436,3.0403,3.0394,3.0386,3.0492,3.0493,3.0493,0,0,3.0782,3.0766,3.0727,3.0709,3.0681,3.0672,3.0663,3.0636,3.0627,3.0578,3.0583,3.0551,3.0492,3.0469,3.045,3.0385,3.0388,3.0374,3.0342,3.0309,3.0301,3.0294,3.0268,3.0259,3.0368,3.0368,3.0368,0,3.0758,3.0709,3.0706,3.0669,3.0649,3.0657,3.0616,3.0597,3.0559,3.0545,3.0558,3.0484,3.0464,3.0403,3.0387,3.0372,3.0359,3.0376,3.0303,3.0296,3.0289,3.0264,3.0255,3.0367,3.0367,3.0367,3.0367,0,3.0679,3.0645,3.0617,3.0582,3.0559,3.052,3.051,3.0487,3.0486,3.0475,3.0424,3.0401,3.0363,3.0349,3.0347,3.0286,3.0294,3.0305,3.0328,3.0279,3.0255,3.0245,3.0364,3.0365,3.0365,3.0366,0,0,3.0606,3.0571,3.0561,3.0544,3.0514,3.0487,3.0447,3.0412,3.0391,3.0365,3.0329,3.028,3.029,3.0268,3.0264,3.0236,3.0182,3.025,3.0249,3.0236,3.011,3.01,3.0089,3.0185,3.0183,3.0182,3.0112,0,3.0545,3.0477,3.0473,3.0411,3.0378,3.0385,3.035,3.0327,3.0315,3.0284,3.0271,3.0234,3.0252,3.0239,3.0211,3.0194,3.0156,3.02,3.0149,3.0147,3.0154,3.0077,3.0066,3.0001,3.0103,3.0101,3.01,0,3.0463,3.0436,3.037,3.0344,3.033,3.0299,3.0265,3.0237,3.0209,3.0203,3.0179,3.0179,3.0136,3.0163,3.0102,3.0132,3.0111,3.01,3.0097,3.009,3.0119,3.0065,2.9981,2.997,3.0086,3.0087,3.0088,0,3.0413,3.036,3.0314,3.03,3.0269,3.0247,3.0232,3.0207,3.0186,3.0156,3.0141,3.0106,3.0086,3.0057,3.0047,3.0068,2.9986,3.0012,2.9976,2.9976,2.9956,2.9957,2.9865,2.9948,2.9948,2.9948,2.9949,0,3.0343,3.0302,3.0291,3.0262,3.0216,3.0211,3.0165,3.0152,3.0129,3.0096,3.01,3.0068,3.0058,3.0024,3.0016,2.9965,2.9957,2.9948,2.9946,2.9946,2.9947,2.993,2.9933,2.9946,2.9946,2.9947,2.9947,0,3.0278,3.027,3.0219,3.0195,3.0187,3.0154,3.0132,3.0103,3.0093,3.005,3.004,3.0023,2.9983,2.9971,2.9923,2.9917,2.9857,2.986,2.9866,2.9865,2.9829,2.9832,2.9721,2.9705,2.9801,2.98,2.98,0,3.0232,3.0201,3.0174,3.0153,3.0138,3.0104,3.0082,3.0077,3.0053,3.002,2.9994,2.9956,2.9924,2.9859,2.9841,2.9804,2.9804,2.9768,2.9798,2.9799,2.98,2.9801,2.9796,2.9761,2.976,2.9759,2.9759,0,3.0151,3.0149,3.0118,3.0086,3.006,3.0034,3.0008,2.999,2.9981,2.9954,2.9914,2.989,2.9841,2.9801,2.9763,2.9746,2.9749,2.975,2.9739,2.9737,2.9741,2.9736,2.9847,2.9751,2.9752,2.9753,2.9753,2.9753,3.0092,3.0064,3.004,3.0006,2.9987,2.9963,2.9934,2.9921,2.9888,2.9849,2.9848,2.9804,2.9776,2.9725,2.9706,2.967,2.968,2.9666,2.9661,2.9657,2.9653,2.975,2.9664,2.9664,2.9664,2.9664,2.9664,0,3.0009,2.9994,2.9963,2.9928,2.99,2.9909,2.9881,2.9856,2.9818,2.9793,2.9763,2.9716,2.9677,2.9656,2.9617,2.9592,2.9592,2.9582,2.9582,2.9577,2.9647,2.9659,2.9582,2.9582,2.9582,2.9582,2.9582,2.9582,2.9962,2.9914,2.9909,2.9851,2.9836,2.9794,2.9777,2.9754,2.9734,2.9682,2.9651,2.9639,2.9614,2.9574,2.9538,2.9533,2.9517,2.9504,2.95,2.9564,2.9573,2.9581,2.9592,2.9502,2.9502,2.9432,2.9432,2.9431]}]]